Home > Weather > Manaus > Past weeks

Flag for Brazil Weather for the Past 2 Weeks in Manaus, Amazonas, Brazil

Now
79 °F

Passing clouds.


Feels Like: 82 °F
Forecast: 78 / 90 °F
Wind: 6 mph from Northeast

Location: Manaus Aeroporto

Current Time: Feb 11, 2016 at 12:37:30 AM

Latest Report: Feb 11, 2016 at 12:00 AM


Visibility: N/A

Pressure: 29.92 "Hg

Humidity: 79%

Dew point: 72 °F

Location of ManausLocation

Historic Weather in Manaus — Graph

°F

Manaus Temperature Yesterday

Maximum temperature yesterday: 93 °F (at 1:00 PM)
Minimum temperature yesterday: 79 °F (at 3:00 AM)
Average temperature yesterday: 84 °F

High & Low Weather Summary for the Past Weeks

 TemperatureHumidityPressure
High93 °F (Jan 30, 2:00 PM)94% (Feb 2, 5:00 AM)29.98 "Hg (Feb 2, 5:00 AM)
Low73 °F (Feb 3, 6:00 AM)46% (Jan 28, 2:00 PM)29.56 "Hg (Feb 7, 8:00 PM)
Average82 °F75%29.86 "Hg
* Reported Midnight between Jan 26 and Jan 27 — Feb 10 11:00 PM, Manaus, Weather by CustomWeather, © 2016

Note: Actual official high and low records may vary slightly from our data, if they occured in-between our weather recording intervals... More about our weather records

Advertising

Manaus Weather History for the Previous 24 Hours

 ConditionsComfort  
Time TempWeatherWind HumidityBarometerVisibility
11:00 PM
Wed, Feb 10
79 °FPassing clouds.2 mph84%29.92 "HgN/A
10:00 PM79 °FPassing clouds.3 mph79%29.92 "HgN/A
9:00 PM79 °FPassing clouds.8 mph79%29.89 "HgN/A
8:00 PM79 °FPassing clouds.6 mph84%29.86 "HgN/A
7:00 PM79 °FLight rain. Passing clouds.7 mph84%29.83 "Hg5 mi
6:00 PM88 °FScattered clouds.9 mph59%29.77 "HgN/A
5:00 PM88 °FScattered clouds.13 mph59%29.77 "HgN/A
4:00 PM93 °FScattered clouds.5 mph53%29.77 "HgN/A
3:00 PM91 °FScattered clouds.8 mph56%29.80 "HgN/A
2:00 PM91 °FScattered clouds.8 mph56%29.83 "HgN/A
1:00 PM93 °FScattered clouds.8 mph56%29.86 "HgN/A
12:00 PM91 °FScattered clouds.8 mph56%29.89 "HgN/A
11:00 AM90 °FScattered clouds.12 mph59%29.92 "HgN/A
10:00 AM88 °FScattered clouds.9 mph66%29.95 "HgN/A
9:00 AM86 °FScattered clouds.8 mph70%29.92 "HgN/A
8:00 AM84 °FScattered clouds.6 mph74%29.92 "HgN/A
7:00 AM81 °FPassing clouds.No wind84%29.89 "HgN/A
6:00 AM81 °FClear.3 mph74%29.86 "Hg10 mi
5:00 AM79 °FClear.3 mph89%29.83 "Hg10 mi
4:00 AM79 °FClear.No wind84%29.83 "Hg10 mi
3:00 AM79 °FClear.1 mph89%29.83 "Hg10 mi
2:00 AM81 °FClear.2 mph79%29.86 "Hg10 mi
1:00 AM81 °FClear.3 mph79%29.86 "Hg10 mi
12:00 AM81 °FClear.2 mph79%29.89 "Hg10 mi
Weather by CustomWeather, © 2016

See weather overviewHow to use our weather pages